TimeEST,TemperatureF,Dew PointF,Humidity,Sea Level PressureIn,VisibilityMPH,Wind Direction,Wind SpeedMPH,Gust SpeedMPH,PrecipitationIn,Events,Conditions,WindDirDegrees,DateUTC
12:09 AM,10.0,7.0,87,29.72,0.5,NE,12.7,-,0.01,Fog-Snow,Snow,40,2014-01-03 05:09:00
12:23 AM,10.0,7.0,87,29.71,0.8,NNE,15.0,19.6,0.01,Snow,Light Snow,30,2014-01-03 05:23:00
12:53 AM,10.9,7.0,84,29.73,0.8,NE,11.5,-,0.02,Snow,Light Snow,40,2014-01-03 05:53:00
1:22 AM,10.9,7.0,84,29.73,1.0,NNE,10.4,-,0.01,Snow,Light Snow,30,2014-01-03 06:22:00
1:45 AM,10.9,8.1,88,29.71,0.8,NE,8.1,-,0.02,Snow,Light Snow,40,2014-01-03 06:45:00
1:53 AM,10.9,8.1,88,29.73,0.8,NE,8.1,-,0.02,Snow,Light Snow,50,2014-01-03 06:53:00
2:07 AM,10.9,8.1,88,29.70,0.5,NE,9.2,-,0.01,Fog-Snow,Snow,50,2014-01-03 07:07:00
2:45 AM,10.0,7.0,87,29.72,1.0,East,8.1,-,0.03,Snow,Light Snow,80,2014-01-03 07:45:00
2:53 AM,10.0,7.0,87,29.75,1.0,ENE,8.1,-,0.03,Snow,Light Snow,70,2014-01-03 07:53:00
3:11 AM,10.0,7.0,87,29.72,1.2,NE,4.6,-,0.00,Snow,Light Snow,50,2014-01-03 08:11:00
3:48 AM,10.4,6.8,85,29.73,1.0,NE,5.8,-,0.02,Snow,Light Snow,40,2014-01-03 08:48:00
3:53 AM,10.9,8.1,88,29.76,1.2,NE,5.8,-,0.02,Snow,Light Snow,50,2014-01-03 08:53:00
4:06 AM,10.0,7.0,87,29.74,1.8,ENE,8.1,-,0.00,Snow,Light Snow,60,2014-01-03 09:06:00
4:14 AM,10.0,7.0,87,29.75,2.0,ENE,5.8,-,0.00,Snow,Light Snow,60,2014-01-03 09:14:00
4:32 AM,9.0,5.0,84,29.75,1.5,East,6.9,-,0.00,Snow,Light Snow,80,2014-01-03 09:32:00
4:42 AM,9.0,5.0,84,29.75,1.0,East,4.6,-,0.00,Snow,Light Snow,80,2014-01-03 09:42:00
4:53 AM,9.0,5.0,84,29.78,1.2,ENE,5.8,-,0.00,Snow,Light Snow,60,2014-01-03 09:53:00
5:03 AM,8.1,5.0,87,29.76,1.5,ENE,8.1,-,0.00,Snow,Light Snow,70,2014-01-03 10:03:00
5:23 AM,7.0,3.0,84,29.78,2.5,NE,9.2,-,0.00,Snow,Light Snow,50,2014-01-03 10:23:00
5:44 AM,6.1,1.9,83,29.80,3.0,NE,8.1,-,0.00,Snow,Light Snow,50,2014-01-03 10:44:00
5:53 AM,6.1,1.9,83,29.83,2.0,NE,9.2,-,0.00,Snow,Light Snow,50,2014-01-03 10:53:00
6:28 AM,6.1,1.0,80,29.85,3.0,NE,8.1,-,0.00,Snow,Light Snow,50,2014-01-03 11:28:00
6:51 AM,6.8,1.4,79,29.87,3.0,ENE,6.9,-,0.00,Snow,Light Snow,60,2014-01-03 11:51:00
6:53 AM,6.1,1.9,83,29.90,3.0,ENE,6.9,-,0.00,Snow,Light Snow,60,2014-01-03 11:53:00
7:00 AM,6.1,1.9,83,29.88,2.5,ENE,5.8,-,0.00,Snow,Light Snow,70,2014-01-03 12:00:00
7:26 AM,6.1,1.9,83,29.90,3.0,East,6.9,-,0.00,Snow,Light Snow,80,2014-01-03 12:26:00
7:53 AM,6.1,1.9,83,29.95,3.0,ENE,5.8,-,0.00,,Overcast,70,2014-01-03 12:53:00
8:13 AM,7.0,3.0,84,29.94,2.5,ENE,5.8,-,N/A,,Overcast,70,2014-01-03 13:13:00
8:26 AM,8.1,3.0,80,29.96,3.0,North,-9999.0,-,N/A,,Haze,0,2014-01-03 13:26:00
8:53 AM,12.0,3.0,67,30.01,7.0,North,8.1,-,0.00,,Overcast,10,2014-01-03 13:53:00
9:53 AM,10.0,-0.0,64,30.05,10.0,NW,8.1,-,0.00,,Mostly Cloudy,320,2014-01-03 14:53:00
10:53 AM,10.0,-2.0,58,30.09,10.0,NW,11.5,18.4,0.00,,Partly Cloudy,310,2014-01-03 15:53:00
11:53 AM,10.9,-2.0,56,30.12,10.0,NW,9.2,18.4,0.00,,Clear,320,2014-01-03 16:53:00
12:53 PM,12.9,-2.0,51,30.15,10.0,Variable,5.8,17.3,N/A,,Clear,0,2014-01-03 17:53:00
1:53 PM,12.9,-4.0,47,30.20,10.0,NNW,15.0,24.2,N/A,,Clear,340,2014-01-03 18:53:00
2:53 PM,12.0,-4.0,49,30.23,10.0,North,-9999.0,-,N/A,,Clear,0,2014-01-03 19:53:00
3:53 PM,10.9,-6.0,47,30.28,10.0,NNW,4.6,24.2,N/A,,Clear,340,2014-01-03 20:53:00
4:53 PM,9.0,-7.1,48,30.32,10.0,NNW,9.2,-,N/A,,Clear,330,2014-01-03 21:53:00
5:53 PM,8.1,-7.1,50,30.36,10.0,NNW,4.6,-,N/A,,Clear,330,2014-01-03 22:53:00
6:53 PM,5.0,-7.1,58,30.41,10.0,Calm,Calm,-,N/A,,Clear,0,2014-01-03 23:53:00
7:53 PM,1.9,-7.1,66,30.45,10.0,Calm,Calm,-,N/A,,Clear,0,2014-01-04 00:53:00
8:53 PM,1.9,-9.0,60,30.46,10.0,SSW,3.5,-,N/A,,Clear,210,2014-01-04 01:53:00
9:53 PM,3.0,-7.1,63,30.46,10.0,Calm,Calm,-,N/A,,Clear,0,2014-01-04 02:53:00
10:53 PM,-0.0,-8.0,69,30.45,10.0,North,4.6,-,N/A,,Clear,10,2014-01-04 03:53:00
11:53 PM,-2.0,-8.0,76,30.45,10.0,Calm,Calm,-,N/A,,Clear,0,2014-01-04 04:53:00